Probability
69 66 62 58 58 60 57 49 42 34 28 25 26 25 18 14 12 12 11 6 2 1 2 3 4 2 1 1 0 0 0 0 0 1 0 0 0 0 0 0 0 0 0
71 68 63 59 60 62 58 50 43 35 28 26 28 26 22 17 14 14 13 9 5 3 2 3 3 2 2 2 1 0 0 0 1 1 1 0 0 0 0 0 1 1 0
69 67 63 60 61 62 57 49 42 34 27 25 26 26 23 19 16 15 16 14 9 6 4 4 5 5 5 5 3 1 0 0 1 2 1 0 0 0 0 0 1 2 2
65 63 61 60 59 57 51 44 39 33 26 23 24 24 21 18 17 17 18 17 13 10 9 9 9 8 8 7 4 2 1 0 1 2 1 1 1 1 0 0 1 2 3
60 57 57 57 55 50 44 38 35 33 28 24 23 22 21 18 17 18 19 20 17 13 11 12 11 10 9 9 8 5 3 2 1 1 1 1 2 1 0 0 1 2 4
52 51 51 52 48 43 39 35 34 32 27 22 21 20 19 18 16 16 20 22 19 14 12 12 12 11 10 12 12 9 7 5 2 2 2 2 2 2 1 1 2 2 4
45 45 47 46 42 37 35 33 31 29 24 19 18 16 15 14 14 14 17 20 18 15 13 13 14 14 13 13 14 13 10 8 5 5 5 4 4 3 2 3 2 1 2
36 38 42 42 38 33 32 30 27 24 20 17 15 13 12 11 11 12 14 15 14 13 13 15 16 15 14 14 16 15 12 10 9 7 7 8 7 6 5 6 4 1 1
27 30 35 37 33 28 27 26 24 22 19 17 14 11 12 12 10 10 11 11 10 10 12 14 13 13 12 13 15 14 12 12 12 10 9 9 8 7 8 11 10 4 1
23 27 31 31 27 22 21 24 25 24 21 18 14 12 13 14 12 10 10 9 8 9 12 12 10 9 10 11 12 11 10 11 13 11 8 7 7 6 8 11 11 7 3
24 27 29 28 24 20 22 26 28 26 23 20 17 15 16 16 15 12 10 9 8 8 10 11 10 9 9 9 8 7 7 7 8 7 5 5 5 5 5 6 6 6 5
27 30 32 30 26 25 29 32 30 26 23 22 20 19 17 17 15 13 11 11 10 9 10 12 12 10 9 8 6 4 4 3 3 4 5 4 4 5 4 4 4 4 4
34 37 40 38 34 35 39 39 33 27 25 25 25 22 19 17 16 14 13 14 14 13 13 15 14 11 9 7 4 2 2 2 3 4 5 5 5 5 5 5 5 5 4
45 48 52 50 46 46 47 43 37 32 30 30 29 25 21 19 19 17 16 17 17 16 16 16 13 10 9 6 3 2 3 3 3 4 6 6 6 6 6 5 4 4 5
53 57 60 60 56 53 50 47 42 38 36 34 32 27 23 22 21 19 17 17 16 15 14 13 11 9 7 5 2 2 4 4 4 5 6 6 5 5 5 4 3 4 5
55 59 63 63 60 56 52 51 48 44 41 37 33 28 25 24 22 20 19 18 16 14 13 11 9 7 4 2 1 2 5 6 6 7 8 7 5 4 4 4 3 3 3
55 59 63 62 60 56 54 53 51 48 42 38 34 30 27 26 25 22 21 21 18 15 13 12 9 7 3 1 0 1 4 7 7 7 8 8 6 4 4 4 4 3 2
59 62 64 62 59 56 54 52 52 49 42 37 34 31 28 27 26 24 23 22 20 16 14 13 10 7 4 1 0 1 3 6 7 6 7 7 6 5 4 4 4 3 3
62 64 65 63 61 58 55 54 54 50 42 36 34 31 28 26 25 24 24 22 20 17 14 12 11 9 6 2 0 0 2 5 6 6 6 5 4 4 3 3 4 3 3
61 63 65 66 65 62 58 56 55 50 43 38 35 32 28 25 24 22 21 20 18 15 12 11 11 11 8 4 1 0 2 5 7 6 5 3 2 2 2 3 3 3 3
60 61 64 67 67 63 58 54 53 51 47 42 37 32 27 23 20 20 19 17 15 13 12 11 11 12 9 5 2 1 2 5 7 6 4 2 1 1 1 1 2 3 3
59 59 62 64 64 60 56 52 51 51 48 41 33 27 23 19 17 17 16 16 14 14 14 13 11 10 8 5 3 1 1 3 4 5 4 2 1 0 0 0 1 2 1
56 56 56 58 57 55 51 48 47 46 42 34 26 22 20 18 16 15 14 14 14 14 14 13 10 8 6 5 3 1 0 1 1 2 2 1 0 0 0 0 0 0 0
50 49 49 48 47 46 44 41 39 39 34 27 22 19 18 17 16 13 12 12 11 11 12 13 11 8 5 4 3 1 1 1 1 1 1 1 1 0 0 0 0 0 0
42 42 42 40 37 36 35 33 32 32 29 23 20 18 16 14 13 11 9 8 7 7 9 11 10 7 4 2 1 1 2 2 2 2 2 2 2 1 0 0 0 0 0
37 38 38 35 32 30 30 29 29 29 26 21 18 15 14 12 11 9 6 4 3 3 4 5 6 6 2 0 0 1 1 1 1 2 3 3 3 2 1 0 0 0 0
Wind_Speed
10 10 9 9 9 8 8 8 8 7 5 4 4 4 3 3 3 3 5 5 4 4 3 2 3 2 2 2 3 2 2 2 2 1 1 2 3 4 3 3 3 4 5
10 10 9 9 9 8 8 7 7 7 7 5 3 3 3 2 3 3 5 5 5 5 5 3 3 3 2 3 2 2 1 2 2 2 1 1 1 2 5 4 4 4 4
12 11 10 8 8 8 8 7 7 7 7 6 4 3 3 2 2 3 3 4 5 5 4 4 3 3 3 3 4 3 3 2 2 2 1 1 1 1 2 4 4 4 4
12 11 10 9 9 8 7 6 6 6 6 6 6 7 6 5 4 4 4 4 5 5 4 4 4 3 2 3 4 4 3 3 2 2 2 2 2 1 1 1 1 2 3
11 10 9 8 7 7 7 7 6 5 6 6 6 5 5 4 3 3 4 4 4 4 5 5 4 4 3 3 3 2 2 2 3 2 1 2 2 3 2 2 1 1 2
11 10 9 8 7 7 7 7 6 5 5 6 5 5 5 4 3 3 4 4 3 4 6 6 5 5 3 3 3 3 4 3 2 1 1 1 1 1 1 2 2 2 1
10 10 9 9 7 7 7 7 7 6 6 6 5 5 5 5 5 4 4 4 3 3 5 5 4 4 3 3 3 3 3 4 3 3 2 2 2 2 1 1 2 1 1
9 10 9 9 8 8 7 7 7 6 6 6 5 4 4 4 4 4 3 3 3 3 3 4 4 4 4 4 3 3 4 3 3 4 3 2 2 2 1 2 1 2 1
10 9 10 9 9 8 7 6 6 5 5 6 5 4 4 3 3 2 3 2 1 2 3 3 3 3 3 3 3 3 3 2 3 3 3 2 2 2 1 1 1 2 2
10 10 9 9 8 8 7 6 6 5 4 4 4 5 4 3 3 2 2 1 1 1 1 1 2 2 2 2 2 2 2 2 2 2 1 1 2 1 1 1 1 0 1
10 10 9 8 9 9 8 7 6 5 4 4 3 3 3 3 3 2 2 1 1 1 1 1 1 1 1 1 1 1 1 1 1 1 1 1 1 1 2 1 1 0 1
9 10 10 9 8 8 8 7 7 5 4 4 3 3 3 3 3 2 2 2 2 1 1 1 1 1 1 1 1 0 0 1 1 1 1 1 1 0 1 1 1 0 0
8 9 9 8 8 7 7 7 7 6 6 5 4 4 3 3 2 2 2 2 2 2 2 2 2 1 2 2 2 2 2 2 2 2 2 2 2 2 1 1 1 1 1
7 7 7 6 6 6 6 6 6 6 6 6 5 4 3 3 2 3 3 3 3 3 3 3 3 3 3 3 2 2 2 3 3 3 3 3 3 2 2 2 2 1 1
8 7 7 6 5 6 6 6 6 6 6 6 5 4 4 4 3 3 3 3 3 3 3 3 3 3 2 2 2 2 3 3 4 4 5 6 7 8 5 4 3 2 1
8 8 8 7 6 5 5 5 6 6 6 6 6 5 5 4 3 3 4 3 3 3 4 4 4 4 3 5 5 4 4 4 5 4 4 5 6 9 10 12 11 9 4
6 6 7 7 6 6 5 5 6 6 6 5 5 5 5 5 4 4 4 4 4 4 4 4 5 5 6 7 7 6 5 5 5 4 4 4 5 5 5 7 10 11 11
4 5 4 6 6 6 6 5 6 6 6 6 5 5 5 5 5 4 4 4 4 4 4 4 5 6 6 7 7 7 6 6 6 5 5 5 5 5 5 6 8 8 8
4 4 4 6 5 5 6 6 6 6 6 6 5 5 6 5 5 4 4 4 4 5 5 5 5 5 5 6 6 5 5 5 6 6 6 5 5 7 7 6 6 5 5
5 4 5 6 6 5 6 5 5 5 5 5 5 6 6 6 5 5 5 4 4 5 5 5 5 6 5 6 6 4 4 4 5 5 6 9 7 8 7 5 5 5 4
6 6 6 6 5 5 5 5 4 4 5 5 6 6 5 6 6 5 4 5 5 5 5 6 5 5 5 6 6 5 2 3 4 4 4 4 7 8 7 5 4 3 2
6 7 6 6 5 5 5 4 4 5 6 6 6 6 5 4 5 5 5 4 5 6 5 5 4 4 5 5 5 7 6 4 5 4 4 4 6 6 6 5 4 3 2
6 6 6 6 5 4 4 5 5 5 6 7 6 6 5 5 4 5 4 4 3 4 4 4 4 4 4 4 7 8 8 8 5 5 7 5 5 4 4 5 5 3 2
5 5 6 5 5 4 4 5 5 5 6 7 6 5 5 4 4 3 3 2 2 2 3 4 4 4 4 3 3 4 5 7 6 5 5 4 3 2 3 3 2 2 2
4 5 5 5 5 5 5 4 4 5 6 7 6 6 5 5 5 6 5 4 5 3 2 2 3 4 4 3 3 2 3 3 4 3 2 2 2 2 2 2 1 1 1
4 5 5 5 5 5 5 4 3 4 5 5 5 5 5 5 5 6 7 13 10 11 12 10 7 6 7 7 6 7 7 6 5 3 2 2 2 2 2 1 1 2 2
Wind_Direction
156 148 150 153 155 155 160 165 170 173 174 171 172 179 190 187 170 166 161 167 180 180 200 194 160 192 178 172 174 172 203 225 211 207 241 241 206 191 195 209 197 189 193
150 148 154 159 160 161 168 175 176 175 178 176 174 175 178 194 182 177 161 177 178 183 194 196 188 188 168 171 188 184 215 242 211 190 204 237 252 235 211 194 202 196 191
156 156 162 161 162 168 177 179 174 175 179 176 181 176 170 191 182 167 172 187 185 193 201 176 197 191 190 184 193 201 205 237 256 221 185 181 209 260 260 208 200 192 194
152 156 161 163 169 174 174 164 170 174 174 183 195 190 188 191 190 181 180 186 194 196 192 190 197 203 204 182 202 200 204 218 246 238 221 221 170 172 267 276 213 204 196
148 153 156 157 164 167 163 162 166 174 179 192 202 201 199 197 187 180 172 185 193 200 205 196 194 201 214 203 200 175 204 220 233 243 241 245 222 212 193 229 237 220 203
143 146 150 150 156 156 158 163 164 175 185 194 202 204 204 193 189 190 177 191 198 203 213 200 189 198 208 201 199 195 206 220 233 256 257 244 235 231 219 222 223 220 218
141 145 146 148 154 155 159 162 167 178 187 195 203 207 206 199 197 202 194 196 204 207 212 201 186 195 198 202 203 199 210 218 219 230 248 245 239 239 233 237 246 233 226
145 143 144 149 154 156 158 160 165 177 190 197 199 201 200 206 203 205 205 204 209 215 205 192 184 189 201 208 196 209 210 211 218 230 234 252 253 254 229 217 230 248 240
137 139 147 151 153 156 159 159 162 171 184 188 186 189 194 206 206 192 197 206 212 205 189 182 187 191 201 207 198 215 218 201 211 226 230 241 252 260 258 247 218 215 232
137 143 148 151 151 151 151 153 155 159 163 168 184 174 183 189 190 197 190 178 174 119 150 170 185 187 189 197 211 233 221 220 221 221 228 257 277 274 281 283 291 243 213
142 143 146 149 149 147 150 152 146 147 155 165 164 148 160 174 174 173 165 140 118 128 137 127 143 161 174 181 182 231 208 216 226 246 217 222 281 331 331 328 324 323 175
136 138 140 147 149 149 148 148 149 154 150 144 139 135 136 148 154 158 148 127 117 113 101 101 106 120 109 99 101 101 75 73 60 15 11 336 318 343 319 330 339 342 142
132 132 139 148 149 149 146 148 155 152 147 142 136 128 132 133 136 128 122 123 123 119 101 88 92 88 95 95 85 75 62 68 68 59 59 37 22 0 4 2 5 3 34
132 131 133 137 138 137 138 144 149 144 142 136 132 130 133 129 119 114 109 112 115 106 94 82 78 75 73 71 74 86 83 78 73 64 63 56 53 41 28 34 16 16 50
141 138 139 134 135 135 139 142 139 137 137 134 134 133 125 120 117 113 110 104 105 109 100 93 82 81 78 69 85 102 102 92 84 72 69 69 70 63 58 56 36 32 46
149 149 149 148 150 148 148 143 137 132 129 133 137 131 124 122 121 116 112 108 105 106 103 100 89 75 65 59 72 83 85 82 80 78 81 84 73 76 72 68 61 54 50
140 149 151 152 154 157 154 149 142 140 140 139 137 135 133 125 118 116 111 108 106 104 101 96 95 86 64 58 68 80 86 80 73 71 68 69 67 71 74 74 66 56 48
124 129 140 139 147 152 150 148 145 144 145 144 141 139 133 127 119 115 111 109 108 106 102 99 96 92 72 63 65 79 83 79 72 67 67 71 58 49 67 82 74 61 46
95 112 126 132 132 134 138 142 145 145 147 147 142 139 132 126 121 117 111 107 106 105 100 96 95 91 75 59 64 79 95 89 80 72 64 69 68 53 68 85 88 85 80
91 93 104 110 115 119 127 133 140 141 148 145 138 133 129 126 123 119 117 114 110 104 102 96 92 92 85 62 60 74 111 107 101 90 76 64 65 55 59 83 87 83 74
81 89 91 96 105 115 121 128 132 133 127 117 113 115 119 120 119 116 115 117 115 109 103 98 91 88 84 79 66 58 90 108 110 102 88 74 68 61 56 66 78 86 91
82 87 86 87 93 109 119 121 116 110 110 113 113 111 110 115 117 117 116 119 124 123 118 112 102 91 83 73 71 66 66 82 94 96 93 86 79 71 61 62 59 50 33
79 86 91 90 89 97 111 116 114 113 114 114 113 110 105 101 111 122 131 140 149 142 135 133 124 112 103 89 81 80 76 78 86 92 101 100 90 80 67 65 54 35 20
80 85 90 92 87 81 89 104 117 122 125 124 122 121 118 111 103 101 109 114 117 133 138 136 131 128 121 109 105 109 102 101 99 106 114 113 92 70 79 75 55 47 33
81 83 89 93 89 86 88 96 111 129 132 134 136 132 123 114 91 70 48 57 54 50 81 115 123 132 125 111 94 111 112 111 103 123 145 149 137 128 113 96 75 67 56
85 86 91 95 95 91 86 83 90 122 135 137 136 131 129 124 119 112 85 54 61 62 63 65 77 85 99 115 100 86 85 89 101 105 132 134 130 122 122 131 123 89 53